Date String (YYYY-MM-DD hh:mm:ss) UTC,Instrument flags,absolute air pressure of the measurement (hPa),sample flow rate (lpm),inlet stack bypass flow (lpm),air temperature of the measurement (°C),ambient temperature measured by the external sensor (°C),aerosol sample conditioner tube jacket temperature (°C),OPC LED temperature (°C),internal box temperature (°C),relative humidity of the measurement (%),span deviation,mass concentration of particles derived from Lorenz-Mie calculation of OPC scattering (μg/m³),mass concentration of particles derived from Lorenz-Mie calculation of OPC scattering (μg/m³),mass concentration of particles derived from Lorenz-Mie calculation of OPC scattering (μg/m³)
DateTimeUTC,F1_M11,P_M11,Q1_M11,Q2_M11,T1_M11,T2_M11,T3_M11,T4_M11,T5_M11,U1_M11,ZSPAN_M11,X0_M11,X2_M11,X1_M11
2023-06-19 10:00:00,SystemResetWarning,0824.1,5.00,000.00,030.4,028.7,000.0,038.9,031.8,14.0,0000.0,0011.73,0003.73,0003.01
2023-06-19 10:01:00,SystemResetWarning,0824.1,5.00,000.00,030.4,028.7,000.0,038.9,031.8,13.9,0000.0,0011.87,0003.73,0003.03
2023-06-19 10:02:00,SystemResetWarning,0824.2,4.99,000.00,030.4,028.7,000.0,038.9,031.8,14.1,0000.0,0012.30,0003.75,0003.03
2023-06-19 10:03:00,SystemResetWarning,0824.3,5.00,000.00,030.4,028.7,000.0,038.9,031.8,14.1,0000.0,0011.45,0003.74,0003.02
2023-06-19 10:04:00,SystemResetWarning,0824.2,5.00,000.00,030.4,028.7,000.0,038.9,031.8,14.1,0000.0,0011.32,0003.76,0003.04
2023-06-19 10:05:00,SystemResetWarning,0824.3,5.01,000.00,030.4,028.7,000.0,038.9,031.9,14.2,0000.0,0010.80,0003.74,0003.04
2023-06-19 10:06:00,SystemResetWarning,0824.3,5.00,000.00,030.4,028.8,000.0,038.9,031.9,15.0,0000.0,0010.75,0003.73,0003.04
2023-06-19 10:07:00,SystemResetWarning,0824.3,5.01,000.00,030.4,028.8,000.0,039.0,031.9,15.5,0000.0,0010.23,0003.72,0003.06
2023-06-19 10:08:00,SystemResetWarning,0824.3,5.00,000.00,030.4,028.8,000.0,039.0,031.9,14.4,0000.0,0009.70,0003.76,0003.07
2023-06-19 10:09:00,SystemResetWarning,0824.4,5.00,000.00,030.4,028.8,000.0,039.0,031.9,14.6,0000.0,0008.99,0003.76,0003.09
2023-06-19 10:10:00,SystemResetWarning,0824.4,5.00,000.00,030.4,028.8,000.0,039.0,031.9,14.5,0000.0,0008.65,0003.74,0003.09
2023-06-19 10:11:00,SystemResetWarning,0824.4,5.00,000.00,030.5,028.8,000.0,039.0,031.9,14.4,0000.0,0008.42,0003.72,0003.10
2023-06-19 10:12:00,SystemResetWarning,0824.4,5.00,000.00,030.5,028.8,000.0,039.0,031.9,14.4,0000.0,0008.06,0003.72,0003.11
2023-06-19 10:13:00,SystemResetWarning,0824.3,5.00,000.00,030.5,028.8,000.0,039.0,032.0,14.4,0000.0,0007.90,0003.70,0003.11
2023-06-19 10:14:00,SystemResetWarning,0824.3,5.00,000.00,030.5,028.8,000.0,039.0,032.0,14.3,0000.0,0008.41,0003.73,0003.11
2023-06-19 10:15:00,SystemResetWarning,0824.4,5.00,000.00,030.5,028.9,000.0,039.0,032.0,14.3,0000.0,0008.74,0003.72,0003.11
2023-06-19 10:16:00,SystemResetWarning,0824.4,5.00,000.00,030.5,028.9,000.0,039.0,032.0,14.3,0000.0,0008.61,0003.69,0003.12
2023-06-19 10:17:00,SystemResetWarning,0824.3,5.00,000.00,030.5,028.9,000.0,039.0,032.0,14.4,0000.0,0008.91,0003.73,0003.12
2023-06-19 10:18:00,SystemResetWarning,0824.4,5.00,000.00,030.5,028.9,000.0,039.1,032.0,14.3,0000.0,0009.03,0003.76,0003.12
2023-06-19 10:19:00,SystemResetWarning,0824.4,5.00,000.00,030.5,028.9,000.0,039.1,032.0,14.2,0000.0,0009.35,0003.77,0003.11
2023-06-19 10:20:00,SystemResetWarning,0824.4,5.01,000.00,030.5,028.9,000.0,039.1,032.0,14.1,0000.0,0009.93,0003.82,0003.11
2023-06-19 10:21:00,SystemResetWarning,0824.4,5.00,000.00,030.5,028.6,000.0,039.1,032.0,13.8,0000.0,0010.40,0003.87,0003.11
2023-06-19 10:22:00,SystemResetWarning,0824.4,4.99,000.00,030.5,026.1,000.0,039.0,032.0,13.9,0000.0,0010.52,0003.90,0003.11
2023-06-19 10:23:00,SystemResetWarning,0824.4,5.00,000.00,030.5,024.9,000.0,038.9,031.9,14.0,0000.0,0010.70,0003.90,0003.10
2023-06-19 10:24:00,SystemResetWarning,0824.4,5.01,000.00,030.4,025.1,000.0,038.9,031.5,14.1,0000.0,0010.63,0003.93,0003.10
2023-06-19 10:25:00,SystemResetWarning,0824.4,5.01,000.00,030.2,025.5,000.0,038.9,031.4,14.2,0000.0,0010.47,0003.96,0003.12
2023-06-19 10:26:00,SystemResetWarning,0824.4,4.99,000.00,030.2,025.9,000.0,038.9,031.4,14.4,0000.0,0010.03,0003.98,0003.11
2023-06-19 10:27:00,SystemResetWarning,0824.4,5.00,000.00,030.1,026.4,000.0,038.8,031.4,14.7,0000.0,0010.10,0004.01,0003.11
2023-06-19 10:28:00,SystemResetWarning,0824.4,4.99,000.00,030.1,026.7,000.0,038.8,031.3,14.5,0000.0,0010.18,0004.01,0003.10
2023-06-19 10:29:00,SystemResetWarning,0824.3,4.99,000.00,030.1,027.1,000.0,038.8,031.4,14.1,0000.0,0010.32,0004.03,0003.11
2023-06-19 10:30:00,SystemResetWarning,0824.4,5.00,000.00,030.1,027.3,000.0,038.8,031.4,14.2,0000.0,0010.88,0004.04,0003.11
2023-06-19 10:31:00,SystemResetWarning,0824.4,5.00,000.00,030.1,027.5,000.0,038.7,031.4,14.6,0000.0,0010.91,0004.01,0003.11
2023-06-19 10:32:00,SystemResetWarning,0824.4,5.01,000.00,030.0,027.7,000.0,038.7,031.4,14.4,0000.0,0010.61,0003.99,0003.11
2023-06-19 10:33:00,SystemResetWarning,0824.4,5.00,000.00,030.0,027.8,000.0,038.7,031.4,14.2,0000.0,0010.62,0004.00,0003.12
2023-06-19 10:34:00,SystemResetWarning,0824.4,4.99,000.00,030.0,028.0,000.0,038.7,031.5,14.0,0000.0,0010.77,0004.03,0003.13
2023-06-19 10:35:00,SystemResetWarning,0824.4,5.00,000.00,030.1,028.0,000.0,038.7,031.5,14.0,0000.0,0010.72,0004.03,0003.14
2023-06-19 10:36:00,SystemResetWarning,0824.4,5.00,000.00,030.1,028.1,000.0,038.7,031.5,13.9,0000.0,0010.21,0003.98,0003.13
2023-06-19 10:37:00,SystemResetWarning,0824.4,5.00,000.00,030.1,028.2,000.0,038.7,031.5,13.9,0000.0,0010.20,0003.96,0003.12
2023-06-19 10:38:00,SystemResetWarning,0824.4,5.00,000.00,030.1,028.2,000.0,038.7,031.5,14.0,0000.0,0010.48,0004.00,0003.13
2023-06-19 10:39:00,SystemResetWarning,0824.4,5.00,000.00,030.1,028.3,000.0,038.7,031.5,14.2,0000.0,0010.06,0003.99,0003.13
2023-06-19 10:40:00,SystemResetWarning,0824.4,5.00,000.00,030.1,028.3,000.0,038.7,031.5,14.3,0000.0,0009.94,0003.95,0003.14
2023-06-19 10:41:00,SystemResetWarning,0824.4,5.00,000.00,030.1,028.3,000.0,038.7,031.6,14.5,0000.0,0009.23,0003.91,0003.13
2023-06-19 10:42:00,SystemResetWarning,0824.5,5.00,000.00,030.1,028.4,000.0,038.7,031.6,14.7,0000.0,0008.97,0003.93,0003.13
2023-06-19 10:43:00,SystemResetWarning,0824.4,5.00,000.00,030.1,028.4,000.0,038.7,031.6,14.7,0000.0,0008.74,0003.92,0003.14
2023-06-19 10:44:00,SystemResetWarning,0824.4,5.00,000.00,030.1,028.4,000.0,038.7,031.6,14.9,0000.0,0009.26,0003.93,0003.15
2023-06-19 10:45:00,SystemResetWarning,0824.4,5.00,000.00,030.1,028.4,000.0,038.7,031.6,14.9,0000.0,0009.41,0003.92,0003.15
2023-06-19 10:46:00,SystemResetWarning,0824.4,5.00,000.00,030.1,028.4,000.0,038.7,031.6,14.6,0000.0,0009.56,0003.93,0003.16
2023-06-19 10:47:00,SystemResetWarning,0824.4,5.00,000.00,030.1,028.4,000.0,038.7,031.6,14.9,0000.0,0009.62,0003.96,0003.17
2023-06-19 10:48:00,SystemResetWarning,0824.4,5.00,000.00,030.2,028.5,000.0,038.7,031.6,14.4,0000.0,0009.75,0003.97,0003.18
2023-06-19 10:49:00,SystemResetWarning,0824.4,5.00,000.00,030.2,028.5,000.0,038.7,031.6,13.8,0000.0,0009.50,0003.94,0003.19
2023-06-19 10:50:00,SystemResetWarning,0824.4,5.00,000.00,030.2,028.5,000.0,038.7,031.6,13.6,0000.0,0009.50,0003.95,0003.20
2023-06-19 10:51:00,SystemResetWarning,0824.4,5.00,000.00,030.2,028.5,000.0,038.7,031.7,13.4,0000.0,0009.59,0003.97,0003.21
2023-06-19 10:52:00,SystemResetWarning,0824.4,4.99,000.00,030.2,028.5,000.0,038.7,031.7,13.3,0000.0,0009.61,0003.95,0003.22
2023-06-19 10:53:00,SystemResetWarning,0824.5,5.00,000.00,030.2,028.5,000.0,038.7,031.7,13.3,0000.0,0009.04,0003.91,0003.23
2023-06-19 10:54:00,SystemResetWarning,0824.5,5.00,000.00,030.2,028.5,000.0,038.7,031.7,13.1,0000.0,0009.17,0003.93,0003.24
2023-06-19 10:55:00,SystemResetWarning,0824.5,5.00,000.00,030.2,028.5,000.0,038.7,031.7,13.1,0000.0,0008.57,0003.96,0003.25
2023-06-19 10:56:00,SystemResetWarning,0824.5,5.00,000.00,030.2,028.5,000.0,038.8,031.7,13.4,0000.0,0008.30,0003.98,0003.25
2023-06-19 10:57:00,SystemResetWarning,0824.6,5.00,000.00,030.2,028.6,000.0,038.8,031.7,13.4,0000.0,0008.12,0004.00,0003.26
2023-06-19 10:58:00,SystemResetWarning,0824.5,5.00,000.00,030.2,028.6,000.0,038.8,031.7,13.5,0000.0,0008.21,0004.01,0003.27
2023-06-19 10:59:00,SystemResetWarning,0824.5,5.00,000.00,030.3,028.6,000.0,038.8,031.7,13.8,0000.0,0008.17,0004.05,0003.27
